Dara'a, Syria

11:37 AM EEST on July 27, 2016 (GMT +0300)
Marka International | | Change Station

Elev 2556 ft 31.97 °N, 35.99 °E | Updated 37 minutes ago

Haze
Haze
88 °F
Feels Like 88 °F
N
5
Wind Variable Wind from NNW

Today
High -- | Low -- °F
--% Chance of Precip.
Yesterday
High -- | Low -- °F
Precip. -- in
Pressure 29.86 in
Visibility 3.1 miles
Clouds
Dew Point 37 °F
Humidity 17%
Rainfall 0.00 in
Snow Depth Not available.
5:46 AM 7:37 PM
Last Quarter, 45% visible
METAR OJAM 270800Z 34004KT 5000 HZ NSC 31/03 Q1011 NOSIG
Pressure 29.86 in
Visibility 3.1 miles
Clouds
Dew Point 37 °F
Humidity 17%
Rainfall 0.00 in
Snow Depth Not available.
5:46 AM 7:37 PM
Last Quarter, 45% visible
METAR OJAM 270800Z 34004KT 5000 HZ NSC 31/03 Q1011 NOSIG

10-Day Weather Forecast

No radar image for this location.
×

Almanac

Astronomy

Jul. 27, 2016 Rise Set
Actual Time
Civil Twilight
Nautical Twilight
Astronomical Twilight
Moon
Length of Visible Light
Length of Day
Tomorrow will be .
, % of the Moon is Illuminated

Today's Extremes

Country Highs Country Lows

Community

WunderPhotos

Upload Photos

1,927,818 photos uploaded!

WunderBlog® & News

Nearby

Air Quality

  Air Quality AQ Index Pollutant
Not available.

Snow Depth

Station Depth Elevation

Earthquake Activity

City Distance Mag. Time & Date
Minimum magnitude displayed is 2.5.

Coastal Water Temperatures

Place Temperature

Stations

Nearby Weather Stations

Station Location Temp. Windchill Dew Point Humidity Wind Precip. Elev Updated Type